Location: Vihti�l�
(61.3833°N, 23.0667°E)
Time: 03:14:49
(UTC+00:00)

Cosmos 1805 Rocket - Pass Details

Date: 29 November 2020
Orbit: 605 x 631 km, 82.5° (Epoch: 19 January)

Event Time Altitude Azimuth Distance (km) Brightness Sun altitude
Rises 05:17:13 0° 204° (SSW) 2,910 7.0 -11.8°
Reaches altitude 10° 05:19:27 10° 207° (SSW) 2,009 6.2 -11.6°
Maximum altitude 05:23:53 63° 289° (WNW) 713 3.6 -11.1°
Drops below altitude 10° 05:28:21 10° 11° (N) 2,029 6.1 -10.6°
Sets 05:30:38 0° 15° (NNE) 2,942 6.9 -10.4°
